Regional Weather Roundup
Issued by NWS

Home | Current Version | Previous Version | Graphics & Text | Print | Product List | Glossary On
Versions: 1 2 3 4 5 6 7 8 9 10 11 12 13 14 15 16 17 18 19 20 21 22 23 24 25 26 27 28 29 30 31 32 33 34 35 36 37 38 39 40 41 42 43 44 45 46 47 48 49
000
ASUS45 KSLC 180010
RWRUT

UTAH REGIONAL WEATHER ROUNDUP
NATIONAL WEATHER SERVICE SALT LAKE CITY UT
500 PM MST WED DEC 17 2014

UTZ001>011-023>025-180100-

NORTHERN UTAH

CITY           SKY/WX    TMP DP  RH WIND       PRES   REMARKS
BRIGHAM CITY   PTCLDY    39  29  68 SW5       30.00R
HILL AFB       MOCLDY    38  29  71 W2        29.98S
LOGAN          MOCLDY    38  28  67 SW5       29.98R WCI  34
OGDEN          PTCLDY    38  31  76 W5        29.98R WCI  34
PROVO AIRPORT  MOCLDY    39  30  70 VRB5      29.98S
SALT LAKE CITY MOCLDY    37  30  75 W5        29.99R WCI  33
VERNAL         CLOUDY    26  22  84 CALM      30.03R
WENDOVER       CLOUDY    34  27  75 CALM      30.01R
HEBER CITY     MOCLDY    37  23  56 S6        29.95S WCI  33
WEST JORDAN    PTCLDY    37  34  87 CALM      29.99S

$$

UTZ012>022-026-027-180100-

SOUTHERN/CENTRAL UTAH

CITY           SKY/WX    TMP DP  RH WIND       PRES   REMARKS
BLANDING       CLOUDY    32  32 100 S3        30.06R
BRYCE CANYON   CLOUDY    28  24  85 W5        29.98R WCI  23
CEDAR CITY     CLOUDY    36  31  82 S7        29.99R WCI  30
DELTA          CLOUDY    39  31  74 S5        29.99S
MILFORD        LGT RAIN  40  32  73 S9        29.98R WCI  34
MOAB/CYNLANDS  LGT RAIN  36  35  96 W3        29.98R
PRICE          PTCLDY    35  21  56 CALM      29.96S
ST GEORGE      CLOUDY    48  34  57 CALM      30.05R
KANAB          MOCLDY    36  34  93 CALM      30.06R

$$

REGIONAL REPORTS     COLORADO/ARIZONA

CITY           SKY/WX    TMP DP  RH WIND       PRES   REMARKS
CRAIG, CO      CLOUDY    29  26  89 SW8       29.98R WCI  21
GRAND JUNCTION CLOUDY    36  35  96 NW3       29.97R
RIFLE          CLOUDY    36  31  82 W5        29.96R WCI  32
MONTROSE       MOCLDY    38  31  76 NW8       29.97R WCI  32
CORTEZ         MIX PCPN  35  34  96 MISG      29.99R
PAGE, AZ       CLOUDY    41  35  79 CALM      30.01R
GRAND CANYON   FLURRIES  33  32  96 CALM      30.02R
KINGMAN        CLOUDY    44  41  89 SW6       30.04S
FLAGSTAFF      MOCLDY    32  28  85 W6        30.03R WCI  26

$$

REGIONAL REPORTS    NEVADA/IDAHO/WYOMING

CITY           SKY/WX    TMP DP  RH WIND       PRES   REMARKS
LAS VEGAS, NV  CLOUDY    53  41  63 SE5       29.98R
ELY            CLOUDY    35  21  56 S5        29.97R WCI  31
ELKO           FOG       27  26  96 CALM      29.99R VSB 1/2
POCATELLO, ID  PTCLDY    34  30  85 NE6       29.98S WCI  29
BURLEY         PTCLDY    38  28  67 NE8       29.95R WCI  32
EVANSTON, WY   MOCLDY    31  18  58 W8        29.96R WCI  23
ROCK SPRINGS   PTCLDY    24  17  74 CALM      29.97R
KEMMERER       CLOUDY    32  21  64 NW3       29.96S

$$


USA.gov is the U.S. government's official web portal to all federal, state and local government web resources and services.